Time,TemperatureF,DewpointF,PressureIn,WindDirection,WindDirectionDegrees,WindSpeedMPH,WindSpeedGustMPH,Humidity,HourlyPrecipIn,Conditions,Clouds,dailyrainin,SoftwareType,DateUTC
2013-01-23 00:00:00,33.8,2.5,30.18,NW,307,0.0,0.0,26,0.00,CLR,,0.00,WeatherDisplay:10.37,2013-01-23 07:00:00,
2013-01-23 00:05:00,33.8,2.4,30.18,NW,307,0.0,0.0,26,0.00,CLR,,0.00,WeatherDisplay:10.37,2013-01-23 07:05:00,
2013-01-23 00:10:00,33.4,3.0,30.17,NW,307,0.0,0.0,27,0.00,CLR,,0.00,WeatherDisplay:10.37,2013-01-23 07:10:00,
2013-01-23 00:15:00,33.1,2.7,30.17,NW,307,0.0,0.0,27,0.00,CLR,,0.00,WeatherDisplay:10.37,2013-01-23 07:15:00,
2013-01-23 00:20:00,32.7,3.1,30.17,NW,307,0.0,0.0,28,0.00,CLR,,0.00,WeatherDisplay:10.37,2013-01-23 07:20:00,
2013-01-23 00:25:00,32.4,2.9,30.18,NW,307,0.0,0.0,28,0.00,CLR,,0.00,WeatherDisplay:10.37,2013-01-23 07:25:00,
2013-01-23 00:30:00,32.3,2.8,30.18,NW,307,0.0,0.0,28,0.00,CLR,,0.00,WeatherDisplay:10.37,2013-01-23 07:30:00,
2013-01-23 00:35:00,32.3,2.8,30.18,NW,307,0.0,0.0,28,0.00,CLR,,0.00,WeatherDisplay:10.37,2013-01-23 07:35:00,
2013-01-23 00:40:00,32.3,2.8,30.17,NW,307,0.0,0.0,28,0.00,CLR,,0.00,WeatherDisplay:10.37,2013-01-23 07:40:00,
2013-01-23 00:46:00,32.3,2.8,30.17,NW,307,0.0,0.0,28,0.00,CLR,,0.00,WeatherDisplay:10.37,2013-01-23 07:46:00,
2013-01-23 00:51:00,32.2,2.7,30.17,NW,307,0.0,0.0,28,0.00,CLR,,0.00,WeatherDisplay:10.37,2013-01-23 07:51:00,
2013-01-23 00:56:00,32.1,2.6,30.17,NW,307,0.0,0.0,28,0.00,CLR,,0.00,WeatherDisplay:10.37,2013-01-23 07:56:00,
2013-01-23 01:01:00,32.1,3.4,30.17,NW,307,0.0,0.0,29,0.00,CLR,,0.00,WeatherDisplay:10.37,2013-01-23 08:01:00,
2013-01-23 01:06:00,32.1,2.6,30.17,NW,307,0.0,0.0,28,0.00,CLR,,0.00,WeatherDisplay:10.37,2013-01-23 08:06:00,
2013-01-23 01:12:00,32.0,2.5,30.17,NW,307,0.0,0.0,28,0.00,CLR,,0.00,WeatherDisplay:10.37,2013-01-23 08:12:00,
2013-01-23 01:17:00,32.0,2.5,30.17,NW,307,0.0,0.0,28,0.00,CLR,,0.00,WeatherDisplay:10.37,2013-01-23 08:17:00,
2013-01-23 01:22:00,32.0,3.3,30.17,NW,307,0.0,0.0,29,0.00,CLR,,0.00,WeatherDisplay:10.37,2013-01-23 08:22:00,
2013-01-23 01:27:00,31.9,2.4,30.17,NW,307,0.0,0.0,28,0.00,CLR,,0.00,WeatherDisplay:10.37,2013-01-23 08:27:00,
2013-01-23 01:32:00,31.9,2.4,30.17,NW,307,0.0,0.0,28,0.00,CLR,,0.00,WeatherDisplay:10.37,2013-01-23 08:32:00,
2013-01-23 01:37:00,31.9,2.4,30.18,NW,307,0.0,0.0,28,0.00,CLR,,0.00,WeatherDisplay:10.37,2013-01-23 08:37:00,
2013-01-23 01:43:00,32.0,1.7,30.17,NW,307,0.0,0.0,27,0.00,CLR,,0.00,WeatherDisplay:10.37,2013-01-23 08:43:00,
2013-01-23 01:48:00,31.9,2.4,30.18,NW,307,0.0,0.0,28,0.00,CLR,,0.00,WeatherDisplay:10.37,2013-01-23 08:48:00,
2013-01-23 01:53:00,31.8,2.3,30.17,NW,307,0.0,0.0,28,0.00,CLR,,0.00,WeatherDisplay:10.37,2013-01-23 08:53:00,
2013-01-23 01:58:00,31.7,2.3,30.17,NW,307,0.0,0.0,28,0.00,CLR,,0.00,WeatherDisplay:10.37,2013-01-23 08:58:00,
2013-01-23 02:03:00,31.7,2.3,30.17,NW,307,0.0,0.0,28,0.00,CLR,,0.00,WeatherDisplay:10.37,2013-01-23 09:03:00,
2013-01-23 02:08:00,31.7,1.5,30.17,NW,307,0.0,0.0,27,0.00,CLR,,0.00,WeatherDisplay:10.37,2013-01-23 09:08:00,
2013-01-23 02:13:00,32.0,0.9,30.17,NW,307,0.0,0.0,26,0.00,CLR,,0.00,WeatherDisplay:10.37,2013-01-23 09:13:00,
2013-01-23 02:19:00,32.3,1.2,30.17,NW,307,0.0,0.0,26,0.00,CLR,,0.00,WeatherDisplay:10.37,2013-01-23 09:19:00,
2013-01-23 02:24:00,32.6,1.4,30.17,NW,307,0.0,0.0,26,0.00,CLR,,0.00,WeatherDisplay:10.37,2013-01-23 09:24:00,
2013-01-23 02:29:00,32.7,0.7,30.17,NW,307,0.0,0.0,25,0.00,CLR,,0.00,WeatherDisplay:10.37,2013-01-23 09:29:00,
2013-01-23 02:34:00,32.7,1.5,30.17,NW,307,0.0,0.0,26,0.00,CLR,,0.00,WeatherDisplay:10.37,2013-01-23 09:34:00,
2013-01-23 02:39:00,32.5,1.4,30.17,NW,307,0.0,0.0,26,0.00,CLR,,0.00,WeatherDisplay:10.37,2013-01-23 09:39:00,
2013-01-23 02:44:00,32.3,1.2,30.17,NW,307,0.0,0.0,26,0.00,CLR,,0.00,WeatherDisplay:10.37,2013-01-23 09:44:00,
2013-01-23 02:50:00,32.1,1.0,30.17,NW,307,0.0,0.0,26,0.00,CLR,,0.00,WeatherDisplay:10.37,2013-01-23 09:50:00,
2013-01-23 02:55:00,32.3,1.2,30.17,NW,307,0.0,0.0,26,0.00,CLR,,0.00,WeatherDisplay:10.37,2013-01-23 09:55:00,
2013-01-23 03:00:00,32.4,1.3,30.17,NW,307,0.0,0.0,26,0.00,CLR,,0.00,WeatherDisplay:10.37,2013-01-23 10:00:00,
2013-01-23 03:05:00,32.4,1.3,30.17,NW,307,0.0,0.0,26,0.00,CLR,,0.00,WeatherDisplay:10.37,2013-01-23 10:05:00,
2013-01-23 03:10:00,32.3,2.0,30.17,NW,307,0.0,0.0,27,0.00,CLR,,0.00,WeatherDisplay:10.37,2013-01-23 10:10:00,
2013-01-23 03:15:00,32.0,1.7,30.17,NW,307,0.0,0.0,27,0.00,CLR,,0.00,WeatherDisplay:10.37,2013-01-23 10:15:00,
2013-01-23 03:20:00,31.7,2.3,30.17,NW,307,0.0,0.0,28,0.00,CLR,,0.00,WeatherDisplay:10.37,2013-01-23 10:20:00,
2013-01-23 03:25:00,31.5,2.1,30.17,NW,307,0.0,0.0,28,0.00,CLR,,0.00,WeatherDisplay:10.37,2013-01-23 10:25:00,
2013-01-23 03:30:00,31.3,2.7,30.17,NW,307,0.0,0.0,29,0.00,CLR,,0.00,WeatherDisplay:10.37,2013-01-23 10:30:00,
2013-01-23 03:35:00,31.1,2.5,30.17,NW,307,0.0,0.0,29,0.00,CLR,,0.00,WeatherDisplay:10.37,2013-01-23 10:35:00,
2013-01-23 03:40:00,31.1,2.5,30.16,NW,307,0.0,0.0,29,0.00,CLR,,0.00,WeatherDisplay:10.37,2013-01-23 10:40:00,
2013-01-23 03:46:00,31.2,1.8,30.17,NW,307,0.0,0.0,28,0.00,CLR,,0.00,WeatherDisplay:10.37,2013-01-23 10:46:00,
2013-01-23 03:51:00,31.5,2.1,30.16,NW,307,0.0,0.0,28,0.00,CLR,,0.00,WeatherDisplay:10.37,2013-01-23 10:51:00,
2013-01-23 03:57:00,31.6,2.2,30.16,NW,307,0.0,0.0,28,0.00,CLR,,0.00,WeatherDisplay:10.37,2013-01-23 10:57:00,
2013-01-23 04:02:00,31.6,2.2,30.17,WNW,302,3.5,3.5,28,0.00,CLR,,0.00,WeatherDisplay:10.37,2013-01-23 11:02:00,
2013-01-23 04:07:00,31.9,1.6,30.16,WNW,302,0.0,0.0,27,0.00,CLR,,0.00,WeatherDisplay:10.37,2013-01-23 11:07:00,
2013-01-23 04:12:00,32.1,2.6,30.16,WNW,302,0.0,0.0,28,0.00,CLR,,0.00,WeatherDisplay:10.37,2013-01-23 11:12:00,
2013-01-23 04:17:00,32.1,2.6,30.16,WNW,302,0.0,0.0,28,0.00,CLR,,0.00,WeatherDisplay:10.37,2013-01-23 11:17:00,
2013-01-23 04:23:00,32.0,2.5,30.16,WNW,302,0.0,0.0,28,0.00,CLR,,0.00,WeatherDisplay:10.37,2013-01-23 11:23:00,
2013-01-23 04:28:00,31.9,2.4,30.17,WNW,302,0.0,0.0,28,0.00,CLR,,0.00,WeatherDisplay:10.37,2013-01-23 11:28:00,
2013-01-23 04:33:00,31.8,2.3,30.17,WNW,302,0.0,0.0,28,0.00,CLR,,0.00,WeatherDisplay:10.37,2013-01-23 11:33:00,
2013-01-23 04:38:00,31.6,2.9,30.18,WNW,302,0.0,0.0,29,0.00,CLR,,0.00,WeatherDisplay:10.37,2013-01-23 11:38:00,
2013-01-23 04:43:00,31.5,2.8,30.18,WNW,302,0.0,0.0,29,0.00,CLR,,0.00,WeatherDisplay:10.37,2013-01-23 11:43:00,
2013-01-23 04:49:00,31.3,2.7,30.18,WNW,302,0.0,0.0,29,0.00,CLR,,0.00,WeatherDisplay:10.37,2013-01-23 11:49:00,
2013-01-23 04:54:00,31.2,2.6,30.18,WNW,302,0.0,0.0,29,0.00,CLR,,0.00,WeatherDisplay:10.37,2013-01-23 11:54:00,
2013-01-23 04:59:00,31.4,2.8,30.18,WNW,302,0.0,0.0,29,0.00,CLR,,0.00,WeatherDisplay:10.37,2013-01-23 11:59:00,
2013-01-23 05:04:00,31.5,2.8,30.17,WNW,302,0.0,0.0,29,0.00,CLR,,0.00,WeatherDisplay:10.37,2013-01-23 12:04:00,
2013-01-23 05:10:00,31.5,2.8,30.17,WNW,302,0.0,0.0,29,0.00,CLR,,0.00,WeatherDisplay:10.37,2013-01-23 12:10:00,
2013-01-23 05:15:00,31.5,2.8,30.17,WNW,302,0.0,0.0,29,0.00,CLR,,0.00,WeatherDisplay:10.37,2013-01-23 12:15:00,
2013-01-23 05:20:00,31.5,2.8,30.17,WNW,302,0.0,0.0,29,0.00,CLR,,0.00,WeatherDisplay:10.37,2013-01-23 12:20:00,
2013-01-23 05:25:00,31.5,2.8,30.17,WNW,302,0.0,0.0,29,0.00,CLR,,0.00,WeatherDisplay:10.37,2013-01-23 12:25:00,
2013-01-23 05:30:00,31.7,3.0,30.17,WNW,302,0.0,0.0,29,0.00,CLR,,0.00,WeatherDisplay:10.37,2013-01-23 12:30:00,
2013-01-23 05:35:00,31.8,2.3,30.17,WNW,302,0.0,0.0,28,0.00,CLR,,0.00,WeatherDisplay:10.37,2013-01-23 12:35:00,
2013-01-23 05:40:00,32.0,2.5,30.17,WNW,302,0.0,0.0,28,0.00,CLR,,0.00,WeatherDisplay:10.37,2013-01-23 12:40:00,
2013-01-23 05:45:00,32.0,2.5,30.18,WNW,302,0.0,0.0,28,0.00,CLR,,0.00,WeatherDisplay:10.37,2013-01-23 12:45:00,
2013-01-23 05:50:00,32.0,2.5,30.18,WNW,302,0.0,0.0,28,0.00,CLR,,0.00,WeatherDisplay:10.37,2013-01-23 12:50:00,
2013-01-23 05:55:00,32.1,2.6,30.18,WNW,302,0.0,0.0,28,0.00,CLR,,0.00,WeatherDisplay:10.37,2013-01-23 12:55:00,
2013-01-23 06:00:00,32.3,2.0,30.18,WNW,302,0.0,0.0,27,0.00,CLR,,0.00,WeatherDisplay:10.37,2013-01-23 13:00:00,
2013-01-23 06:05:00,32.6,1.5,30.19,WNW,302,0.0,0.0,26,0.00,CLR,,0.00,WeatherDisplay:10.37,2013-01-23 13:05:00,
2013-01-23 06:10:00,33.0,2.6,30.19,WNW,302,0.0,0.0,27,0.00,CLR,,0.00,WeatherDisplay:10.37,2013-01-23 13:10:00,
2013-01-23 06:15:00,33.3,2.0,30.19,WNW,302,0.0,0.0,26,0.00,CLR,,0.00,WeatherDisplay:10.37,2013-01-23 13:15:00,
2013-01-23 06:20:00,33.5,2.2,30.19,WNW,302,0.0,0.0,26,0.00,CLR,,0.00,WeatherDisplay:10.37,2013-01-23 13:20:00,
2013-01-23 06:25:00,33.6,2.3,30.19,WNW,302,0.0,0.0,26,0.00,CLR,,0.00,WeatherDisplay:10.37,2013-01-23 13:25:00,
2013-01-23 06:30:00,33.6,2.3,30.19,WNW,302,0.0,0.0,26,0.00,CLR,,0.00,WeatherDisplay:10.37,2013-01-23 13:30:00,
2013-01-23 06:35:00,33.5,3.0,30.20,WNW,302,0.0,0.0,27,0.00,CLR,,0.00,WeatherDisplay:10.37,2013-01-23 13:35:00,
2013-01-23 06:40:00,33.5,3.0,30.20,WNW,302,0.0,0.0,27,0.00,CLR,,0.00,WeatherDisplay:10.37,2013-01-23 13:40:00,
2013-01-23 06:45:00,33.4,2.9,30.19,WNW,302,0.0,0.0,27,0.00,CLR,,0.00,WeatherDisplay:10.37,2013-01-23 13:45:00,
2013-01-23 06:50:00,33.4,2.9,30.19,WNW,302,0.0,0.0,27,0.00,CLR,,0.00,WeatherDisplay:10.37,2013-01-23 13:50:00,
2013-01-23 06:55:00,33.4,2.9,30.19,WNW,302,0.0,0.0,27,0.00,CLR,,0.00,WeatherDisplay:10.37,2013-01-23 13:55:00,
2013-01-23 07:00:00,33.4,3.7,30.19,WNW,302,0.0,0.0,28,0.00,CLR,,0.00,WeatherDisplay:10.37,2013-01-23 14:00:00,
2013-01-23 07:05:00,33.4,2.9,30.19,WNW,302,0.0,0.0,27,0.00,CLR,,0.00,WeatherDisplay:10.37,2013-01-23 14:05:00,
2013-01-23 07:10:00,33.5,3.0,30.19,WNW,302,0.0,0.0,27,0.00,CLR,,0.00,WeatherDisplay:10.37,2013-01-23 14:10:00,
2013-01-23 07:15:00,33.5,3.0,30.19,WNW,302,0.0,0.0,27,0.00,CLR,,0.00,WeatherDisplay:10.37,2013-01-23 14:15:00,
2013-01-23 07:20:00,33.5,3.0,30.20,WNW,302,0.0,0.0,27,0.00,CLR,,0.00,WeatherDisplay:10.37,2013-01-23 14:20:00,
2013-01-23 07:25:00,33.7,2.4,30.20,WNW,302,0.0,0.0,26,0.00,CLR,,0.00,WeatherDisplay:10.37,2013-01-23 14:25:00,
2013-01-23 07:30:00,34.2,3.6,30.19,WNW,302,0.0,0.0,27,0.00,CLR,,0.00,WeatherDisplay:10.37,2013-01-23 14:30:00,
2013-01-23 07:36:00,34.6,3.2,30.20,WNW,295,0.0,0.0,26,0.00,CLR,,0.00,WeatherDisplay:10.37,2013-01-23 14:36:00,
2013-01-23 07:41:00,35.0,3.5,30.19,WNW,295,0.0,0.0,26,0.00,CLR,,0.00,WeatherDisplay:10.37,2013-01-23 14:41:00,
2013-01-23 07:46:00,35.2,3.7,30.20,WNW,295,0.0,0.0,26,0.00,CLR,,0.00,WeatherDisplay:10.37,2013-01-23 14:46:00,
2013-01-23 07:51:00,35.2,3.7,30.19,WNW,295,0.0,0.0,26,0.00,CLR,,0.00,WeatherDisplay:10.37,2013-01-23 14:51:00,
2013-01-23 07:57:00,35.1,3.6,30.19,WNW,295,0.0,0.0,26,0.00,CLR,,0.00,WeatherDisplay:10.37,2013-01-23 14:57:00,
2013-01-23 08:02:00,35.0,3.5,30.19,WNW,295,0.0,0.0,26,0.00,CLR,,0.00,WeatherDisplay:10.37,2013-01-23 15:02:00,
2013-01-23 08:07:00,35.1,4.4,30.19,WNW,295,0.0,0.0,27,0.00,CLR,,0.00,WeatherDisplay:10.37,2013-01-23 15:07:00,
2013-01-23 08:12:00,35.3,4.6,30.19,WNW,293,0.0,0.0,27,0.00,CLR,,0.00,WeatherDisplay:10.37,2013-01-23 15:12:00,
2013-01-23 08:17:00,35.4,4.7,30.18,WNW,292,0.0,0.0,27,0.00,CLR,,0.00,WeatherDisplay:10.37,2013-01-23 15:17:00,
2013-01-23 08:22:00,35.6,4.0,30.18,WNW,292,0.0,0.0,26,0.00,CLR,,0.00,WeatherDisplay:10.37,2013-01-23 15:22:00,
2013-01-23 08:28:00,36.0,4.4,30.18,WNW,292,0.0,0.0,26,0.00,CLR,,0.00,WeatherDisplay:10.37,2013-01-23 15:28:00,
2013-01-23 08:33:00,36.3,4.6,30.18,WNW,292,0.0,0.0,26,0.00,CLR,,0.00,WeatherDisplay:10.37,2013-01-23 15:33:00,
2013-01-23 08:38:00,36.6,4.9,30.18,WNW,292,0.0,0.0,26,0.00,CLR,,0.00,WeatherDisplay:10.37,2013-01-23 15:38:00,
2013-01-23 08:43:00,37.0,4.4,30.18,WNW,292,0.0,0.0,25,0.00,CLR,,0.00,WeatherDisplay:10.37,2013-01-23 15:43:00,
2013-01-23 08:48:00,37.5,4.8,30.18,WNW,292,0.0,0.0,25,0.00,CLR,,0.00,WeatherDisplay:10.37,2013-01-23 15:48:00,
2013-01-23 08:53:00,37.9,5.1,30.18,WNW,291,0.0,0.0,25,0.00,CLR,,0.00,WeatherDisplay:10.37,2013-01-23 15:53:00,
2013-01-23 08:59:00,38.3,5.5,30.19,West,279,0.0,0.0,25,0.00,CLR,,0.00,WeatherDisplay:10.37,2013-01-23 15:59:00,
2013-01-23 09:04:00,38.6,4.9,30.19,West,279,0.0,0.0,24,0.00,CLR,,0.00,WeatherDisplay:10.37,2013-01-23 16:04:00,
2013-01-23 09:09:00,39.0,5.2,30.20,West,279,0.0,0.0,24,0.00,CLR,,0.00,WeatherDisplay:10.37,2013-01-23 16:09:00,
2013-01-23 09:14:00,39.2,6.3,30.20,West,279,0.0,0.0,25,0.00,CLR,,0.00,WeatherDisplay:10.37,2013-01-23 16:14:00,
2013-01-23 09:19:00,39.3,5.5,30.21,West,279,0.0,0.0,24,0.00,CLR,,0.00,WeatherDisplay:10.37,2013-01-23 16:19:00,
2013-01-23 09:24:00,39.4,6.4,30.20,West,279,0.0,0.0,25,0.00,CLR,,0.00,WeatherDisplay:10.37,2013-01-23 16:24:00,
2013-01-23 09:29:00,39.6,6.6,30.20,West,279,0.0,0.0,25,0.00,CLR,,0.00,WeatherDisplay:10.37,2013-01-23 16:29:00,
2013-01-23 09:34:00,39.8,6.8,30.20,West,279,0.0,0.0,25,0.00,CLR,,0.00,WeatherDisplay:10.37,2013-01-23 16:34:00,
2013-01-23 09:40:00,39.9,6.9,30.20,West,279,0.0,0.0,25,0.00,CLR,,0.00,WeatherDisplay:10.37,2013-01-23 16:40:00,
2013-01-23 09:45:00,40.2,7.1,30.20,West,279,0.0,0.0,25,0.00,CLR,,0.00,WeatherDisplay:10.37,2013-01-23 16:45:00,
2013-01-23 09:50:00,40.4,7.3,30.20,West,279,0.0,0.0,25,0.00,CLR,,0.00,WeatherDisplay:10.37,2013-01-23 16:50:00,
2013-01-23 09:55:00,40.6,7.5,30.21,West,279,0.0,0.0,25,0.00,CLR,,0.00,WeatherDisplay:10.37,2013-01-23 16:55:00,
2013-01-23 10:00:00,40.9,7.7,30.21,West,279,0.0,0.0,25,0.00,CLR,,0.00,WeatherDisplay:10.37,2013-01-23 17:00:00,
2013-01-23 10:05:00,41.1,7.9,30.21,West,279,0.0,0.0,25,0.00,CLR,,0.00,WeatherDisplay:10.37,2013-01-23 17:05:00,
2013-01-23 10:10:00,41.5,8.2,30.22,West,279,0.0,0.0,25,0.00,CLR,,0.00,WeatherDisplay:10.37,2013-01-23 17:10:00,
2013-01-23 10:15:00,41.7,8.4,30.21,West,279,0.0,0.0,25,0.00,CLR,,0.00,WeatherDisplay:10.37,2013-01-23 17:15:00,
2013-01-23 10:20:00,42.0,8.7,30.21,West,279,0.0,0.0,25,0.00,CLR,,0.00,WeatherDisplay:10.37,2013-01-23 17:20:00,
2013-01-23 10:25:00,42.3,8.9,30.21,West,279,0.0,0.0,25,0.00,CLR,,0.00,WeatherDisplay:10.37,2013-01-23 17:25:00,
2013-01-23 10:30:00,42.6,9.1,30.21,West,279,0.0,0.0,25,0.00,CLR,,0.00,WeatherDisplay:10.37,2013-01-23 17:30:00,
2013-01-23 10:35:00,42.9,9.4,30.21,West,279,0.0,0.0,25,0.00,CLR,,0.00,WeatherDisplay:10.37,2013-01-23 17:35:00,
2013-01-23 10:40:00,43.1,8.7,30.21,West,279,0.0,0.0,24,0.00,CLR,,0.00,WeatherDisplay:10.37,2013-01-23 17:40:00,
2013-01-23 10:45:00,43.3,9.8,30.21,West,279,0.0,0.0,25,0.00,CLR,,0.00,WeatherDisplay:10.37,2013-01-23 17:45:00,
2013-01-23 10:50:00,43.6,9.1,30.21,West,279,0.0,0.0,24,0.00,CLR,,0.00,WeatherDisplay:10.37,2013-01-23 17:50:00,
2013-01-23 10:55:00,43.9,9.4,30.20,West,279,0.0,0.0,24,0.00,CLR,,0.00,WeatherDisplay:10.37,2013-01-23 17:55:00,
2013-01-23 11:00:00,44.5,8.9,30.20,West,279,0.0,0.0,23,0.00,CLR,,0.00,WeatherDisplay:10.37,2013-01-23 18:00:00,
2013-01-23 11:05:00,44.9,8.3,30.19,West,279,0.0,0.0,22,0.00,CLR,,0.00,WeatherDisplay:10.37,2013-01-23 18:05:00,
2013-01-23 11:10:00,45.5,8.8,30.19,West,279,0.0,0.0,22,0.00,CLR,,0.00,WeatherDisplay:10.37,2013-01-23 18:10:00,
2013-01-23 11:15:00,46.3,8.4,30.19,West,279,0.0,0.0,21,0.00,CLR,,0.00,WeatherDisplay:10.37,2013-01-23 18:15:00,
2013-01-23 11:20:00,47.2,7.0,30.18,West,279,0.0,0.0,19,0.00,CLR,,0.00,WeatherDisplay:10.37,2013-01-23 18:20:00,
2013-01-23 11:26:00,48.3,6.7,30.18,West,279,0.0,0.0,18,0.00,CLR,,0.00,WeatherDisplay:10.37,2013-01-23 18:26:00,
2013-01-23 11:31:00,49.0,7.3,30.18,West,279,0.0,0.0,18,0.00,CLR,,0.00,WeatherDisplay:10.37,2013-01-23 18:31:00,
2013-01-23 11:36:00,49.5,6.4,30.17,West,263,2.0,2.0,17,0.00,CLR,,0.00,WeatherDisplay:10.37,2013-01-23 18:36:00,
2013-01-23 11:41:00,49.9,6.7,30.17,WSW,237,0.0,0.0,17,0.00,CLR,,0.00,WeatherDisplay:10.37,2013-01-23 18:41:00,
2013-01-23 11:46:00,50.1,6.9,30.16,WSW,237,0.0,0.0,17,0.00,CLR,,0.00,WeatherDisplay:10.37,2013-01-23 18:46:00,
2013-01-23 11:51:00,50.2,7.0,30.16,SW,232,3.5,3.5,17,0.00,CLR,,0.00,WeatherDisplay:10.37,2013-01-23 18:51:00,
2013-01-23 11:56:00,50.3,7.1,30.16,SW,232,0.0,0.0,17,0.00,CLR,,0.00,WeatherDisplay:10.37,2013-01-23 18:56:00,
2013-01-23 12:01:00,50.4,7.1,30.16,SW,232,0.0,0.0,17,0.00,CLR,,0.00,WeatherDisplay:10.37,2013-01-23 19:01:00,
2013-01-23 12:07:00,50.5,7.2,30.16,SW,232,0.0,0.0,17,0.00,CLR,,0.00,WeatherDisplay:10.37,2013-01-23 19:07:00,
2013-01-23 12:12:00,50.8,7.5,30.16,SW,232,0.0,0.0,17,0.00,CLR,,0.00,WeatherDisplay:10.37,2013-01-23 19:12:00,
2013-01-23 12:17:00,51.0,7.6,30.16,SW,232,0.0,0.0,17,0.00,CLR,,0.00,WeatherDisplay:10.37,2013-01-23 19:17:00,
2013-01-23 12:22:00,51.4,8.0,30.16,SW,232,0.0,0.0,17,0.00,CLR,,0.00,WeatherDisplay:10.37,2013-01-23 19:22:00,
2013-01-23 12:27:00,51.7,8.2,30.15,SW,232,0.0,0.0,17,0.00,CLR,,0.00,WeatherDisplay:10.37,2013-01-23 19:27:00,
2013-01-23 12:32:00,51.9,8.4,30.15,SW,232,0.0,0.0,17,0.00,CLR,,0.00,WeatherDisplay:10.37,2013-01-23 19:32:00,
2013-01-23 12:38:00,52.1,7.2,30.15,SW,232,0.0,0.0,16,0.00,CLR,,0.00,WeatherDisplay:10.37,2013-01-23 19:38:00,
2013-01-23 12:43:00,52.2,7.3,30.15,SW,232,0.0,0.0,16,0.00,CLR,,0.00,WeatherDisplay:10.37,2013-01-23 19:43:00,
2013-01-23 12:48:00,52.3,7.4,30.15,SW,232,0.0,0.0,16,0.00,CLR,,0.00,WeatherDisplay:10.37,2013-01-23 19:48:00,
2013-01-23 12:53:00,52.3,7.4,30.14,SW,232,0.0,0.0,16,0.00,CLR,,0.00,WeatherDisplay:10.37,2013-01-23 19:53:00,
2013-01-23 12:58:00,52.3,7.4,30.14,SW,232,0.0,0.0,16,0.00,CLR,,0.00,WeatherDisplay:10.37,2013-01-23 19:58:00,
2013-01-23 13:04:00,52.4,7.4,30.14,SW,232,0.0,0.0,16,0.00,CLR,,0.00,WeatherDisplay:10.37,2013-01-23 20:04:00,
2013-01-23 13:09:00,52.5,7.5,30.14,SW,232,0.0,0.0,16,0.00,CLR,,0.00,WeatherDisplay:10.37,2013-01-23 20:09:00,
2013-01-23 13:14:00,52.6,7.6,30.14,SW,232,0.0,0.0,16,0.00,CLR,,0.00,WeatherDisplay:10.37,2013-01-23 20:14:00,
2013-01-23 13:19:00,52.8,7.8,30.14,SW,232,0.0,0.0,16,0.00,CLR,,0.00,WeatherDisplay:10.37,2013-01-23 20:19:00,
2013-01-23 13:25:00,53.0,7.9,30.14,SW,232,0.0,0.0,16,0.00,CLR,,0.00,WeatherDisplay:10.37,2013-01-23 20:25:00,
2013-01-23 13:30:00,53.2,8.1,30.14,SW,232,0.0,0.0,16,0.00,CLR,,0.00,WeatherDisplay:10.37,2013-01-23 20:30:00,
2013-01-23 13:35:00,53.5,6.9,30.14,SW,232,0.0,0.0,15,0.00,CLR,,0.00,WeatherDisplay:10.37,2013-01-23 20:35:00,
2013-01-23 13:40:00,54.0,7.3,30.14,SW,232,0.0,0.0,15,0.00,CLR,,0.00,WeatherDisplay:10.37,2013-01-23 20:40:00,
2013-01-23 13:45:00,54.6,7.8,30.14,SW,232,0.0,0.0,15,0.00,CLR,,0.00,WeatherDisplay:10.37,2013-01-23 20:45:00,
2013-01-23 13:50:00,55.1,8.2,30.13,SW,232,0.0,0.0,15,0.00,CLR,,0.00,WeatherDisplay:10.37,2013-01-23 20:50:00,
2013-01-23 13:56:00,55.6,8.6,30.13,SW,232,0.0,0.0,15,0.00,CLR,,0.00,WeatherDisplay:10.37,2013-01-23 20:56:00,
2013-01-23 14:01:00,55.9,8.8,30.14,SW,232,0.0,0.0,15,0.00,CLR,,0.00,WeatherDisplay:10.37,2013-01-23 21:01:00,
2013-01-23 14:06:00,56.2,9.1,30.14,SW,233,0.0,0.0,15,0.00,CLR,,0.00,WeatherDisplay:10.37,2013-01-23 21:06:00,
2013-01-23 14:11:00,56.6,10.9,30.14,SW,232,0.0,0.0,16,0.00,CLR,,0.00,WeatherDisplay:10.37,2013-01-23 21:11:00,
2013-01-23 14:17:00,56.8,11.0,30.14,SW,232,0.0,0.0,16,0.00,CLR,,0.00,WeatherDisplay:10.37,2013-01-23 21:17:00,
2013-01-23 14:22:00,57.0,11.2,30.14,SW,232,0.0,0.0,16,0.00,CLR,,0.00,WeatherDisplay:10.37,2013-01-23 21:22:00,
2013-01-23 14:27:00,57.2,9.9,30.14,SW,232,0.0,0.0,15,0.00,CLR,,0.00,WeatherDisplay:10.37,2013-01-23 21:27:00,
2013-01-23 14:32:00,57.3,10.0,30.14,SW,232,0.0,0.0,15,0.00,CLR,,0.00,WeatherDisplay:10.37,2013-01-23 21:32:00,
2013-01-23 14:37:00,57.4,10.0,30.13,SW,232,0.0,0.0,15,0.00,CLR,,0.00,WeatherDisplay:10.37,2013-01-23 21:37:00,
2013-01-23 14:42:00,57.4,10.0,30.13,SW,232,0.0,0.0,15,0.00,CLR,,0.00,WeatherDisplay:10.37,2013-01-23 21:42:00,
2013-01-23 14:47:00,57.4,10.0,30.13,SW,232,0.0,0.0,15,0.00,CLR,,0.00,WeatherDisplay:10.37,2013-01-23 21:47:00,
2013-01-23 14:52:00,57.4,11.5,30.13,SW,232,0.0,0.0,16,0.00,CLR,,0.00,WeatherDisplay:10.37,2013-01-23 21:52:00,
2013-01-23 14:58:00,57.2,12.7,30.13,SW,232,0.0,0.0,17,0.00,CLR,,0.00,WeatherDisplay:10.37,2013-01-23 21:58:00,
2013-01-23 15:03:00,56.9,12.5,30.13,SW,233,0.0,0.0,17,0.00,CLR,,0.00,WeatherDisplay:10.37,2013-01-23 22:03:00,
2013-01-23 15:08:00,56.7,12.3,30.13,SW,233,0.0,0.0,17,0.00,CLR,,0.00,WeatherDisplay:10.37,2013-01-23 22:08:00,
2013-01-23 15:13:00,56.2,13.2,30.13,SW,233,0.0,0.0,18,0.00,CLR,,0.00,WeatherDisplay:10.37,2013-01-23 22:13:00,
2013-01-23 15:18:00,55.8,11.6,30.13,SW,232,0.0,0.0,17,0.00,CLR,,0.00,WeatherDisplay:10.37,2013-01-23 22:18:00,
2013-01-23 15:23:00,55.3,12.4,30.13,SW,232,0.0,0.0,18,0.00,CLR,,0.00,WeatherDisplay:10.37,2013-01-23 22:23:00,
2013-01-23 15:29:00,54.9,12.1,30.13,SW,233,0.0,0.0,18,0.00,CLR,,0.00,WeatherDisplay:10.37,2013-01-23 22:29:00,
2013-01-23 15:34:00,54.5,13.0,30.13,SW,233,0.0,0.0,19,0.00,CLR,,0.00,WeatherDisplay:10.37,2013-01-23 22:34:00,
2013-01-23 15:39:00,54.0,13.8,30.13,SW,232,0.0,0.0,20,0.00,CLR,,0.00,WeatherDisplay:10.37,2013-01-23 22:39:00,
2013-01-23 15:44:00,53.6,13.4,30.13,SW,233,0.0,0.0,20,0.00,CLR,,0.00,WeatherDisplay:10.37,2013-01-23 22:44:00,
2013-01-23 15:49:00,53.2,13.1,30.13,SW,232,0.0,0.0,20,0.00,CLR,,0.00,WeatherDisplay:10.37,2013-01-23 22:49:00,
2013-01-23 15:55:00,52.8,12.8,30.13,SW,232,0.0,0.0,20,0.00,CLR,,0.00,WeatherDisplay:10.37,2013-01-23 22:55:00,
2013-01-23 16:00:00,52.5,14.7,30.13,SW,232,0.0,0.0,22,0.00,CLR,,0.00,WeatherDisplay:10.37,2013-01-23 23:00:00,
2013-01-23 16:05:00,51.9,14.2,30.13,SW,232,0.0,0.0,22,0.00,CLR,,0.00,WeatherDisplay:10.37,2013-01-23 23:05:00,
2013-01-23 16:10:00,51.4,13.7,30.13,SW,232,0.0,0.0,22,0.00,CLR,,0.00,WeatherDisplay:10.37,2013-01-23 23:10:00,
2013-01-23 16:15:00,50.9,12.3,30.14,SW,232,0.0,0.0,21,0.00,CLR,,0.00,WeatherDisplay:10.37,2013-01-23 23:15:00,
2013-01-23 16:20:00,50.5,13.0,30.14,SW,232,0.0,0.0,22,0.00,CLR,,0.00,WeatherDisplay:10.37,2013-01-23 23:20:00,
2013-01-23 16:25:00,50.1,12.6,30.14,SW,232,0.0,0.0,22,0.00,CLR,,0.00,WeatherDisplay:10.37,2013-01-23 23:25:00,
2013-01-23 16:30:00,49.6,13.3,30.14,SW,232,0.0,0.0,23,0.00,CLR,,0.00,WeatherDisplay:10.37,2013-01-23 23:30:00,
2013-01-23 16:35:00,49.3,13.0,30.14,SW,232,0.0,0.0,23,0.00,CLR,,0.00,WeatherDisplay:10.37,2013-01-23 23:35:00,
2013-01-23 16:40:00,48.9,12.7,30.14,SW,232,0.0,0.0,23,0.00,CLR,,0.00,WeatherDisplay:10.37,2013-01-23 23:40:00,
2013-01-23 16:45:00,48.7,12.5,30.14,SW,232,0.0,0.0,23,0.00,CLR,,0.00,WeatherDisplay:10.37,2013-01-23 23:45:00,
2013-01-23 16:50:00,48.7,13.5,30.14,SW,232,0.0,0.0,24,0.00,CLR,,0.00,WeatherDisplay:10.37,2013-01-23 23:50:00,
2013-01-23 16:55:00,49.0,13.7,30.14,SW,232,0.0,0.0,24,0.00,CLR,,0.00,WeatherDisplay:10.37,2013-01-23 23:55:00,
2013-01-23 17:00:00,49.2,14.8,30.15,SW,232,0.0,0.0,25,0.00,CLR,,0.00,WeatherDisplay:10.37,2013-01-24 00:00:00,
2013-01-23 17:05:00,49.5,16.0,30.15,SW,232,0.0,0.0,26,0.00,CLR,,0.00,WeatherDisplay:10.37,2013-01-24 00:05:00,
2013-01-23 17:10:00,49.7,17.0,30.15,SW,228,0.0,0.0,27,0.00,CLR,,0.00,WeatherDisplay:10.37,2013-01-24 00:10:00,
2013-01-23 17:15:00,49.9,18.0,30.15,SSW,209,0.0,0.0,28,0.00,CLR,,0.00,WeatherDisplay:10.37,2013-01-24 00:15:00,
2013-01-23 17:20:00,49.9,18.0,30.15,SSW,209,0.0,0.0,28,0.00,CLR,,0.00,WeatherDisplay:10.37,2013-01-24 00:20:00,
2013-01-23 17:25:00,49.7,17.9,30.15,SSW,209,0.0,0.0,28,0.00,CLR,,0.00,WeatherDisplay:10.37,2013-01-24 00:25:00,
2013-01-23 17:30:00,49.4,18.4,30.16,SSW,209,0.0,0.0,29,0.00,CLR,,0.00,WeatherDisplay:10.37,2013-01-24 00:30:00,
2013-01-23 17:35:00,49.1,18.2,30.16,SSW,209,0.0,0.0,29,0.00,CLR,,0.00,WeatherDisplay:10.37,2013-01-24 00:35:00,
2013-01-23 17:40:00,48.7,18.6,30.17,SSW,209,0.0,0.0,30,0.00,CLR,,0.00,WeatherDisplay:10.37,2013-01-24 00:40:00,
2013-01-23 17:46:00,48.4,18.3,30.17,SSW,209,0.0,0.0,30,0.00,CLR,,0.00,WeatherDisplay:10.37,2013-01-24 00:46:00,
2013-01-23 17:51:00,47.9,18.7,30.17,SSW,209,0.0,0.0,31,0.00,CLR,,0.00,WeatherDisplay:10.37,2013-01-24 00:51:00,
2013-01-23 17:56:00,47.5,18.3,30.16,SSW,209,0.0,0.0,31,0.00,CLR,,0.00,WeatherDisplay:10.37,2013-01-24 00:56:00,
2013-01-23 18:01:00,47.2,17.3,30.16,SSW,202,0.0,0.0,30,0.00,CLR,,0.00,WeatherDisplay:10.37,2013-01-24 01:01:00,
2013-01-23 18:06:00,47.2,14.9,30.17,SSW,202,0.0,0.0,27,0.00,CLR,,0.00,WeatherDisplay:10.37,2013-01-24 01:06:00,
2013-01-23 18:12:00,47.3,15.8,30.17,SSW,202,0.0,0.0,28,0.00,CLR,,0.00,WeatherDisplay:10.37,2013-01-24 01:12:00,
2013-01-23 18:17:00,47.2,14.9,30.17,SSW,202,0.0,0.0,27,0.00,CLR,,0.00,WeatherDisplay:10.37,2013-01-24 01:17:00,
2013-01-23 18:22:00,47.0,15.5,30.18,SSW,202,0.0,0.0,28,0.00,CLR,,0.00,WeatherDisplay:10.37,2013-01-24 01:22:00,
2013-01-23 18:27:00,46.9,16.3,30.18,SSW,202,0.0,0.0,29,0.00,CLR,,0.00,WeatherDisplay:10.37,2013-01-24 01:27:00,
2013-01-23 18:32:00,46.6,16.0,30.17,SSW,202,0.0,0.0,29,0.00,CLR,,0.00,WeatherDisplay:10.37,2013-01-24 01:32:00,
2013-01-23 18:38:00,46.1,15.6,30.18,SSW,202,0.0,0.0,29,0.00,CLR,,0.00,WeatherDisplay:10.37,2013-01-24 01:38:00,
2013-01-23 18:43:00,45.8,16.1,30.18,SSW,202,0.0,0.0,30,0.00,CLR,,0.00,WeatherDisplay:10.37,2013-01-24 01:43:00,
2013-01-23 18:48:00,45.3,15.6,30.19,SSW,202,0.0,0.0,30,0.00,CLR,,0.00,WeatherDisplay:10.37,2013-01-24 01:48:00,
2013-01-23 18:53:00,44.9,15.3,30.18,SSW,202,0.0,0.0,30,0.00,CLR,,0.00,WeatherDisplay:10.37,2013-01-24 01:53:00,
2013-01-23 18:58:00,44.5,15.7,30.18,SSW,202,0.0,0.0,31,0.00,CLR,,0.00,WeatherDisplay:10.37,2013-01-24 01:58:00,
2013-01-23 19:04:00,44.0,15.3,30.18,SSW,202,0.0,0.0,31,0.00,CLR,,0.00,WeatherDisplay:10.37,2013-01-24 02:04:00,
2013-01-23 19:09:00,43.6,15.6,30.19,SSW,202,0.0,0.0,32,0.00,CLR,,0.00,WeatherDisplay:10.37,2013-01-24 02:09:00,
2013-01-23 19:14:00,43.3,15.4,30.19,SSW,202,0.0,0.0,32,0.00,CLR,,0.00,WeatherDisplay:10.37,2013-01-24 02:14:00,
2013-01-23 19:19:00,43.1,15.9,30.19,SSW,202,0.0,0.0,33,0.00,CLR,,0.00,WeatherDisplay:10.37,2013-01-24 02:19:00,
2013-01-23 19:24:00,42.7,15.6,30.19,SSW,202,0.0,0.0,33,0.00,CLR,,0.00,WeatherDisplay:10.37,2013-01-24 02:24:00,
2013-01-23 19:29:00,42.4,15.3,30.19,SSW,202,0.0,0.0,33,0.00,CLR,,0.00,WeatherDisplay:10.37,2013-01-24 02:29:00,
2013-01-23 19:35:00,42.3,15.2,30.19,SSW,202,0.0,0.0,33,0.00,CLR,,0.00,WeatherDisplay:10.37,2013-01-24 02:35:00,
2013-01-23 19:40:00,42.1,15.0,30.19,SSW,202,0.0,0.0,33,0.00,CLR,,0.00,WeatherDisplay:10.37,2013-01-24 02:40:00,
2013-01-23 19:45:00,41.8,15.5,30.19,SSW,202,0.0,0.0,34,0.00,CLR,,0.00,WeatherDisplay:10.37,2013-01-24 02:45:00,
2013-01-23 19:50:00,41.7,16.0,30.19,SSW,202,0.0,0.0,35,0.00,CLR,,0.00,WeatherDisplay:10.37,2013-01-24 02:50:00,
2013-01-23 19:55:00,41.5,15.8,30.19,SSW,202,0.0,0.0,35,0.00,CLR,,0.00,WeatherDisplay:10.37,2013-01-24 02:55:00,
2013-01-23 20:00:00,41.2,16.2,30.20,SSW,202,0.0,0.0,36,0.00,CLR,,0.00,WeatherDisplay:10.37,2013-01-24 03:00:00,
2013-01-23 20:05:00,41.0,16.0,30.19,SSW,202,0.0,0.0,36,0.00,CLR,,0.00,WeatherDisplay:10.37,2013-01-24 03:05:00,
2013-01-23 20:10:00,40.7,15.8,30.19,SSW,202,0.0,0.0,36,0.00,CLR,,0.00,WeatherDisplay:10.37,2013-01-24 03:10:00,
2013-01-23 20:15:00,40.5,16.2,30.20,SSW,202,0.0,0.0,37,0.00,CLR,,0.00,WeatherDisplay:10.37,2013-01-24 03:15:00,
2013-01-23 20:21:00,40.2,16.0,30.20,SSW,202,0.0,0.0,37,0.00,CLR,,0.00,WeatherDisplay:10.37,2013-01-24 03:21:00,
2013-01-23 20:26:00,40.0,16.4,30.20,SSW,202,0.0,0.0,38,0.00,CLR,,0.00,WeatherDisplay:10.37,2013-01-24 03:26:00,
2013-01-23 20:31:00,39.8,15.6,30.20,SSW,202,0.0,0.0,37,0.00,CLR,,0.00,WeatherDisplay:10.37,2013-01-24 03:31:00,
2013-01-23 20:36:00,39.7,15.5,30.19,SSW,202,0.0,0.0,37,0.00,CLR,,0.00,WeatherDisplay:10.37,2013-01-24 03:36:00,
2013-01-23 20:41:00,39.5,16.0,30.20,SSW,202,0.0,0.0,38,0.00,CLR,,0.00,WeatherDisplay:10.37,2013-01-24 03:41:00,
2013-01-23 20:47:00,39.4,15.9,30.19,SSW,202,0.0,0.0,38,0.00,CLR,,0.00,WeatherDisplay:10.37,2013-01-24 03:47:00,
2013-01-23 20:52:00,39.2,15.7,30.19,SSW,202,0.0,0.0,38,0.00,CLR,,0.00,WeatherDisplay:10.37,2013-01-24 03:52:00,
2013-01-23 20:57:00,38.9,15.4,30.19,SSW,202,0.0,0.0,38,0.00,CLR,,0.00,WeatherDisplay:10.37,2013-01-24 03:57:00,
2013-01-23 21:02:00,38.8,15.3,30.19,SSW,202,0.0,0.0,38,0.00,CLR,,0.00,WeatherDisplay:10.37,2013-01-24 04:02:00,
2013-01-23 21:08:00,38.7,15.8,30.19,SSW,202,0.0,0.0,39,0.00,CLR,,0.00,WeatherDisplay:10.37,2013-01-24 04:08:00,
2013-01-23 21:13:00,38.7,15.8,30.20,SSW,202,0.0,0.0,39,0.00,CLR,,0.00,WeatherDisplay:10.37,2013-01-24 04:13:00,
2013-01-23 21:18:00,38.8,15.3,30.20,SSW,202,0.0,0.0,38,0.00,CLR,,0.00,WeatherDisplay:10.37,2013-01-24 04:18:00,
2013-01-23 21:23:00,38.8,15.3,30.20,SSW,202,0.0,0.0,38,0.00,CLR,,0.00,WeatherDisplay:10.37,2013-01-24 04:23:00,
2013-01-23 21:28:00,38.8,14.7,30.19,SSW,202,0.0,0.0,37,0.00,CLR,,0.00,WeatherDisplay:10.37,2013-01-24 04:28:00,
2013-01-23 21:33:00,38.7,15.2,30.19,SSW,202,0.0,0.0,38,0.00,CLR,,0.00,WeatherDisplay:10.37,2013-01-24 04:33:00,
2013-01-23 21:39:00,38.7,15.2,30.19,SSW,202,0.0,0.0,38,0.00,CLR,,0.00,WeatherDisplay:10.37,2013-01-24 04:39:00,
2013-01-23 21:44:00,38.7,15.2,30.19,SSW,202,0.0,0.0,38,0.00,CLR,,0.00,WeatherDisplay:10.37,2013-01-24 04:44:00,
2013-01-23 21:49:00,38.7,14.6,30.19,SSW,202,0.0,0.0,37,0.00,CLR,,0.00,WeatherDisplay:10.37,2013-01-24 04:49:00,
2013-01-23 21:54:00,38.8,14.1,30.19,SSW,202,0.0,0.0,36,0.00,CLR,,0.00,WeatherDisplay:10.37,2013-01-24 04:54:00,
2013-01-23 22:00:00,39.0,14.3,30.19,SSW,202,0.0,0.0,36,0.00,CLR,,0.00,WeatherDisplay:10.37,2013-01-24 05:00:00,
2013-01-23 22:02:00,39.1,14.4,30.19,SSW,202,0.0,0.0,36,0.00,CLR,,0.00,WeatherDisplay:10.37,2013-01-24 05:02:00,
2013-01-23 22:03:00,39.1,15.0,30.19,SSW,202,0.0,0.0,37,0.00,CLR,,0.00,WeatherDisplay:10.37,2013-01-24 05:03:00,
2013-01-23 22:04:00,39.1,14.4,30.18,SSW,202,0.0,0.0,36,0.00,CLR,,0.00,WeatherDisplay:10.37,2013-01-24 05:04:00,
2013-01-23 22:09:00,39.1,14.4,30.18,SSW,202,0.0,0.0,36,0.00,CLR,,0.00,WeatherDisplay:10.37,2013-01-24 05:09:00,
2013-01-23 22:14:00,39.2,13.8,30.18,SSW,202,0.0,0.0,35,0.00,CLR,,0.00,WeatherDisplay:10.37,2013-01-24 05:14:00,
2013-01-23 22:19:00,39.2,13.8,30.18,SSW,202,0.0,0.0,35,0.00,CLR,,0.00,WeatherDisplay:10.37,2013-01-24 05:19:00,
2013-01-23 22:24:00,39.3,13.2,30.18,SSW,202,0.0,0.0,34,0.00,CLR,,0.00,WeatherDisplay:10.37,2013-01-24 05:24:00,
2013-01-23 22:30:00,39.3,13.2,30.18,SSW,202,0.0,0.0,34,0.00,CLR,,0.00,WeatherDisplay:10.37,2013-01-24 05:30:00,
2013-01-23 22:35:00,39.3,13.2,30.17,SSW,202,0.0,0.0,34,0.00,CLR,,0.00,WeatherDisplay:10.37,2013-01-24 05:35:00,
2013-01-23 22:40:00,39.3,13.9,30.18,SSW,202,0.0,0.0,35,0.00,CLR,,0.00,WeatherDisplay:10.37,2013-01-24 05:40:00,
2013-01-23 22:45:00,39.1,13.7,30.17,SSW,202,0.0,0.0,35,0.00,CLR,,0.00,WeatherDisplay:10.37,2013-01-24 05:45:00,
2013-01-23 22:50:00,38.8,13.4,30.17,SSW,202,0.0,0.0,35,0.00,CLR,,0.00,WeatherDisplay:10.37,2013-01-24 05:50:00,
2013-01-23 22:56:00,38.7,13.4,30.17,SSW,202,0.0,0.0,35,0.00,CLR,,0.00,WeatherDisplay:10.37,2013-01-24 05:56:00,
2013-01-23 23:01:00,38.6,13.3,30.18,SSW,202,0.0,0.0,35,0.00,CLR,,0.00,WeatherDisplay:10.37,2013-01-24 06:01:00,
2013-01-23 23:06:00,38.7,13.4,30.17,SSW,202,0.0,0.0,35,0.00,CLR,,0.00,WeatherDisplay:10.37,2013-01-24 06:06:00,
2013-01-23 23:11:00,38.7,14.0,30.17,SSW,202,0.0,0.0,36,0.00,CLR,,0.00,WeatherDisplay:10.37,2013-01-24 06:11:00,
2013-01-23 23:17:00,38.6,13.3,30.17,SSW,202,0.0,0.0,35,0.00,CLR,,0.00,WeatherDisplay:10.37,2013-01-24 06:17:00,
2013-01-23 23:22:00,38.6,13.3,30.17,SSW,202,0.0,0.0,35,0.00,CLR,,0.00,WeatherDisplay:10.37,2013-01-24 06:22:00,
2013-01-23 23:27:00,38.6,13.9,30.18,SSW,202,0.0,0.0,36,0.00,CLR,,0.00,WeatherDisplay:10.37,2013-01-24 06:27:00,
2013-01-23 23:33:00,38.5,13.8,30.17,SSW,202,0.0,0.0,36,0.00,CLR,,0.00,WeatherDisplay:10.37,2013-01-24 06:33:00,
2013-01-23 23:38:00,38.3,13.6,30.17,SSW,203,0.0,0.0,36,0.00,CLR,,0.00,WeatherDisplay:10.37,2013-01-24 06:38:00,
2013-01-23 23:43:00,38.4,14.4,30.18,SSW,211,2.3,2.3,37,0.00,CLR,,0.00,WeatherDisplay:10.37,2013-01-24 06:43:00,
2013-01-23 23:48:00,38.4,13.7,30.17,SSW,211,0.0,0.0,36,0.00,CLR,,0.00,WeatherDisplay:10.37,2013-01-24 06:48:00,
2013-01-23 23:54:00,38.4,14.4,30.17,SSW,212,0.0,0.0,37,0.00,CLR,,0.00,WeatherDisplay:10.37,2013-01-24 06:54:00,
2013-01-23 23:59:00,38.4,13.7,30.17,SW,217,0.0,0.0,36,0.00,CLR,,0.00,WeatherDisplay:10.37,2013-01-24 06:59:00,